When you browse on this site, cookies collect data to enhance your experience and personalize the content and advertising you see.
Visit our Privacy Policy to learn more. By continuing to use the site, you agree to this use of cookies and data.
  • în România
  • Lista ţărilor
  • Pe 7 zile
  • Temperatura apei
  • Hartă satelitară
  • Meteo pe hartă
  • Widget-uri
  • user-avatar
    Intrare

    Meteo pe oră la Kakanj

    Astăzi, 26 Iunie, Miercuri

    Timp Temperatura Precipitaţii Vânt Presiune Umiditate
    00:00 +18°C° 0 mm 0 m/s 729 mmHg 95%
    01:00 +19°C° 0 mm 1 m/s 729 mmHg 94%
    02:00 +19°C° 0 mm 1 m/s 728 mmHg 94%
    03:00 +17°C° 0 mm 0 m/s 728 mmHg 94%
    04:00 +17°C° 0 mm 0 m/s 728 mmHg 95%
    05:00 +18°C° 0 mm 0 m/s 728 mmHg 93%
    06:00 +20°C° 0 mm 0 m/s 729 mmHg 91%
    07:00 +21°C° 0 mm 0 m/s 729 mmHg 89%
    08:00 +25°C° 0 mm 1 m/s 729 mmHg 79%
    09:00 +27°C° 0 mm 1 m/s 729 mmHg 69%
    10:00 +29°C° 0 mm 2 m/s 729 mmHg 59%
    11:00 +30°C° 0 mm 2 m/s 729 mmHg 58%
    12:00 +30°C° 0 mm 3 m/s 729 mmHg 56%
    13:00 +31°C° 0 mm 3 m/s 729 mmHg 54%
    14:00 +31°C° 0 mm 3 m/s 729 mmHg 58%
    15:00 +30°C° 0 mm 3 m/s 728 mmHg 61%
    16:00 +30°C° 0 mm 3 m/s 728 mmHg 65%
    17:00 +28°C° 0 mm 3 m/s 728 mmHg 72%
    18:00 +27°C° 0 mm 2 m/s 728 mmHg 80%
    19:00 +25°C° 0 mm 1 m/s 728 mmHg 88%
    20:00 +24°C° 0 mm 1 m/s 728 mmHg 90%
    21:00 +23°C° 0 mm 1 m/s 728 mmHg 92%
    22:00 +19°C° 0 mm 0 m/s 728 mmHg 94%
    23:00 +19°C° 0 mm 0 m/s 728 mmHg 94%

    Mâine, 27 Iunie, Joi

    Timp Temperatura Precipitaţii Vânt Presiune Umiditate
    00:00 +18°C° 0 mm 0 m/s 727 mmHg 94%
    01:00 +18°C° 0 mm 0 m/s 727 mmHg 94%
    02:00 +18°C° 0 mm 0 m/s 727 mmHg 94%
    03:00 +17°C° 0 mm 0 m/s 727 mmHg 94%
    04:00 +17°C° 0 mm 0 m/s 726 mmHg 94%
    05:00 +19°C° 0 mm 0 m/s 726 mmHg 91%
    06:00 +20°C° 0 mm 0 m/s 727 mmHg 87%
    07:00 +22°C° 0 mm 0 m/s 727 mmHg 84%
    08:00 +24°C° 0 mm 0 m/s 727 mmHg 74%
    09:00 +28°C° 0 mm 1 m/s 727 mmHg 64%
    10:00 +30°C° 0 mm 1 m/s 727 mmHg 53%
    11:00 +31°C° 0 mm 1 m/s 726 mmHg 50%
    12:00 +32°C° 0 mm 1 m/s 726 mmHg 47%
    13:00 +32°C° 0 mm 2 m/s 726 mmHg 44%
    14:00 +32°C° 0 mm 2 m/s 726 mmHg 46%
    15:00 +32°C° 0 mm 2 m/s 725 mmHg 48%
    16:00 +31°C° 0 mm 2 m/s 725 mmHg 50%
    17:00 +29°C° 0 mm 2 m/s 724 mmHg 60%
    18:00 +27°C° 0 mm 1 m/s 724 mmHg 69%
    19:00 +25°C° 0 mm 1 m/s 723 mmHg 79%
    20:00 +24°C° 0.2 mm 1 m/s 724 mmHg 81%
    21:00 +21°C° 0.2 mm 0 m/s 724 mmHg 84%
    22:00 +20°C° 0.2 mm 0 m/s 724 mmHg 86%
    23:00 +22°C° 1.8 mm 1 m/s 725 mmHg 90%

    Poimâine, 28 Iunie, Vineri

    Timp Temperatura Precipitaţii Vânt Presiune Umiditate
    00:00 +22°C° 1.8 mm 1 m/s 725 mmHg 94%
    01:00 +22°C° 1.8 mm 1 m/s 725 mmHg 98%
    02:00 +21°C° 0.3 mm 1 m/s 725 mmHg 96%
    03:00 +20°C° 0.3 mm 1 m/s 725 mmHg 95%
    04:00 +20°C° 0.3 mm 1 m/s 724 mmHg 93%
    05:00 +20°C° 0 mm 1 m/s 725 mmHg 90%
    06:00 +21°C° 0 mm 1 m/s 725 mmHg 87%
    07:00 +20°C° 0 mm 2 m/s 725 mmHg 84%
    08:00 +23°C° 0 mm 2 m/s 725 mmHg 74%
    09:00 +24°C° 0 mm 2 m/s 725 mmHg 65%
    10:00 +25°C° 0 mm 3 m/s 725 mmHg 55%
    11:00 +25°C° 0 mm 3 m/s 725 mmHg 53%
    12:00 +26°C° 0 mm 3 m/s 725 mmHg 50%
    13:00 +26°C° 0 mm 4 m/s 725 mmHg 47%
    14:00 +26°C° 0 mm 4 m/s 724 mmHg 51%
    15:00 +25°C° 0 mm 3 m/s 724 mmHg 54%
    16:00 +25°C° 0 mm 3 m/s 724 mmHg 57%
    17:00 +22°C° 0 mm 3 m/s 724 mmHg 66%
    18:00 +20°C° 0 mm 2 m/s 724 mmHg 75%
    19:00 +20°C° 0 mm 1 m/s 724 mmHg 83%
    20:00 +19°C° 0 mm 1 m/s 724 mmHg 87%
    21:00 +18°C° 0 mm 1 m/s 725 mmHg 90%
    22:00 +16°C° 0 mm 1 m/s 725 mmHg 93%
    23:00 +15°C° 0 mm 1 m/s 725 mmHg 94%

    29 Iunie, Sâmbătă

    Timp Temperatura Precipitaţii Vânt Presiune Umiditate
    00:00 +15°C° 0 mm 1 m/s 725 mmHg 95%
    01:00 +15°C° 0 mm 1 m/s 725 mmHg 95%
    02:00 +14°C° 0 mm 0 m/s 725 mmHg 95%
    03:00 +13°C° 0 mm 0 m/s 725 mmHg 96%
    04:00 +13°C° 0 mm 0 m/s 724 mmHg 96%
    05:00 +15°C° 0 mm 0 m/s 725 mmHg 93%
    06:00 +18°C° 0 mm 1 m/s 725 mmHg 90%
    07:00 +20°C° 0 mm 1 m/s 725 mmHg 87%
    08:00 +21°C° 0 mm 1 m/s 725 mmHg 77%
    09:00 +23°C° 0 mm 2 m/s 726 mmHg 67%
    10:00 +24°C° 0 mm 3 m/s 726 mmHg 57%
    11:00 +25°C° 0 mm 3 m/s 726 mmHg 55%
    12:00 +25°C° 0 mm 3 m/s 726 mmHg 54%
    13:00 +26°C° 0 mm 4 m/s 725 mmHg 52%
    14:00 +26°C° 0 mm 4 m/s 725 mmHg 55%
    15:00 +25°C° 0 mm 4 m/s 725 mmHg 57%
    16:00 +25°C° 0 mm 4 m/s 725 mmHg 60%
    17:00 +22°C° 0 mm 3 m/s 725 mmHg 67%
    18:00 +21°C° 0 mm 2 m/s 725 mmHg 75%
    19:00 +20°C° 0 mm 1 m/s 725 mmHg 82%
    20:00 +19°C° 0 mm 1 m/s 725 mmHg 86%
    21:00 +18°C° 0 mm 1 m/s 726 mmHg 89%
    22:00 +15°C° 0 mm 0 m/s 726 mmHg 92%
    23:00 +14°C° 0 mm 0 m/s 726 mmHg 93%

    30 Iunie, Duminică

    Timp Temperatura Precipitaţii Vânt Presiune Umiditate
    00:00 +14°C° 0 mm 0 m/s 726 mmHg 93%
    01:00 +14°C° 0 mm 0 m/s 726 mmHg 93%
    02:00 +13°C° 0 mm 0 m/s 726 mmHg 94%
    03:00 +13°C° 0 mm 0 m/s 726 mmHg 94%
    04:00 +13°C° 0 mm 0 m/s 725 mmHg 94%
    05:00 +15°C° 0 mm 0 m/s 726 mmHg 87%
    06:00 +17°C° 0 mm 0 m/s 726 mmHg 80%
    07:00 +18°C° 0 mm 0 m/s 727 mmHg 73%
    08:00 +20°C° 0 mm 0 m/s 727 mmHg 65%
    09:00 +24°C° 0 mm 1 m/s 727 mmHg 57%
    10:00 +26°C° 0 mm 1 m/s 727 mmHg 49%
    11:00 +27°C° 0 mm 1 m/s 727 mmHg 48%
    12:00 +27°C° 0 mm 1 m/s 727 mmHg 46%
    13:00 +28°C° 0 mm 2 m/s 727 mmHg 45%
    14:00 +28°C° 0 mm 2 m/s 727 mmHg 48%
    15:00 +28°C° 0 mm 2 m/s 727 mmHg 51%
    16:00 +27°C° 0 mm 2 m/s 726 mmHg 54%
    17:00 +25°C° 0 mm 2 m/s 726 mmHg 63%
    18:00 +23°C° 0 mm 1 m/s 726 mmHg 73%
    19:00 +21°C° 0 mm 1 m/s 726 mmHg 83%
    20:00 +20°C° 0 mm 1 m/s 726 mmHg 85%
    21:00 +17°C° 0 mm 0 m/s 726 mmHg 87%
    22:00 +16°C° 0 mm 0 m/s 726 mmHg 90%
    23:00 +15°C° 0 mm 0 m/s 726 mmHg 90%

    1 Iulie, Luni

    Timp Temperatura Precipitaţii Vânt Presiune Umiditate
    00:00 +15°C° 0 mm 0 m/s 726 mmHg 90%
    01:00 +16°C° 0 mm 1 m/s 726 mmHg 90%
    02:00 +15°C° 0 mm 1 m/s 726 mmHg 89%
    03:00 +15°C° 0 mm 1 m/s 725 mmHg 89%
    04:00 +15°C° 0 mm 1 m/s 725 mmHg 89%
    05:00 +18°C° 0 mm 1 m/s 725 mmHg 83%
    06:00 +20°C° 0 mm 1 m/s 725 mmHg 77%
    07:00 +22°C° 0 mm 1 m/s 726 mmHg 71%
    08:00 +22°C° 0 mm 0 m/s 726 mmHg 64%
    09:00 +25°C° 0 mm 0 m/s 726 mmHg 57%
    10:00 +27°C° 0 mm 0 m/s 726 mmHg 50%
    11:00 +28°C° 0 mm 0 m/s 726 mmHg 47%
    12:00 +31°C° 0 mm 1 m/s 726 mmHg 43%
    13:00 +32°C° 0 mm 1 m/s 726 mmHg 40%
    14:00 +32°C° 0 mm 1 m/s 726 mmHg 42%
    15:00 +30°C° 0 mm 0 m/s 725 mmHg 44%
    16:00 +30°C° 0 mm 0 m/s 725 mmHg 45%
    17:00 +27°C° 0 mm 0 m/s 724 mmHg 56%
    18:00 +25°C° 0 mm 0 m/s 724 mmHg 67%
    19:00 +25°C° 0 mm 1 m/s 723 mmHg 78%
    20:00 +24°C° 0 mm 1 m/s 724 mmHg 80%
    21:00 +23°C° 0 mm 1 m/s 724 mmHg 82%
    22:00 +22°C° 0 mm 1 m/s 724 mmHg 84%
    23:00 +21°C° 0 mm 1 m/s 724 mmHg 85%
    Arată mai mult